Zurück zum Katalog

IGS R-6

AktivMilitärSSO
NORAD 43495·PAYLOAD·🇯🇵 Japan

Gestartet Jun 12, 2018 von Tanegashima Space Center

Loading…

Nächste Überflüge (nächste 24 Stunden)

TLE

VeraltetSource: Mike McCants

Epoche: Aug 20, 2026, 00:28 UTC

1 43495U 18052A   26232.01967753 0.00000000  00000-0  00000-0 0    07
2 43495  97.3655 347.1297 0001609  67.7940 292.2058 15.25981368    00

Verfolge IGS R-6 in Echtzeit mit AllMySat

Download on the App Store